This is the latest recevied weather packets stored in our database for station/object EB1TK-13. If no packets are shown the sender has not sent any weather packets the latest 10 day(s).
| Time | Temp. | Humidity | Pressure | Rain* | Wind** | Luminosity | Snow |
|---|---|---|---|---|---|---|---|
| 1778227935 | 15.56° C | 88% | 1007.5 hPa | 0 mm | - | - | - |
| 1778227336 | 15° C | 88% | 1007.3 hPa | 0 mm | - | - | - |
| 1778226736 | 15° C | 89% | 1007.3 hPa | 0 mm | - | - | - |
| 1778226136 | 14.44° C | 89% | 1007.2 hPa | 0 mm | - | - | - |
| 1778225536 | 14.44° C | 89% | 1007.1 hPa | 0 mm | - | - | - |
| 1778224937 | 14.44° C | 88% | 1007 hPa | 0 mm | - | - | - |
| 1778224350 | 13.89° C | 89% | 1007 hPa | 0 mm | - | - | - |
| 1778223735 | 13.89° C | 89% | 1007.1 hPa | 0 mm | - | - | - |
| 1778223136 | 13.89° C | 88% | 1007.1 hPa | 0 mm | - | - | - |
| 1778222536 | 14.44° C | 88% | 1007.2 hPa | 0 mm | - | - | - |
| 1778221936 | 13.89° C | 88% | 1007.1 hPa | 0 mm | - | - | - |
| 1778221337 | 13.89° C | 88% | 1007.1 hPa | 0 mm | - | - | - |
| 1778220737 | 13.89° C | 89% | 1007.1 hPa | 0 mm | - | - | - |
| 1778220137 | 13.89° C | 89% | 1007.1 hPa | 0 mm | - | - | - |
| 1778219540 | 13.33° C | 90% | 1007.2 hPa | 0 mm | - | - | - |
| 1778218935 | 13.33° C | 90% | 1007.3 hPa | 0 mm | - | - | - |
| 1778218336 | 13.33° C | 91% | 1007.2 hPa | 0 mm | - | - | - |
| 1778217736 | 13.33° C | 91% | 1007 hPa | 0 mm | - | - | - |
| 1778217147 | 12.78° C | 92% | 1007 hPa | 0 mm | - | - | - |
| 1778216537 | 12.78° C | 91% | 1006.8 hPa | 0 mm | - | - | - |
| 1778215935 | 12.78° C | 90% | 1006.9 hPa | 0 mm | - | - | - |
| 1778215346 | 13.33° C | 90% | 1006.8 hPa | 0 mm | - | - | - |
| 1778214738 | 12.78° C | 91% | 1006.9 hPa | 0 mm | - | - | - |
| 1778214136 | 13.33° C | 91% | 1007 hPa | 0 mm | - | - | - |
| 1778213536 | 12.78° C | 93% | 1007.1 hPa | 0 mm | - | - | - |
* Rain latest hour (hover to see other rain measurements)
** Current wind speed in m/s (hover to see current wind gust speed)